• In Lithuania
  • List of Countries
  • For 7 days
  • Water Temperature
  • Satellite Maps
  • Weather Map
  • Weather Widgets
  • user-avatar
    Login

    Hourly Weather Ioannina

    Today, 18 June, Monday

    Time Temperature Precipitation Wind Pressure Humidity
    00:00 +15°C° 0 mm 1 mps 683 mmHg 87%
    01:00 +15°C° 0 mm 1 mps 683 mmHg 87%
    02:00 +15°C° 0 mm 1 mps 683 mmHg 87%
    03:00 +14°C° 0 mm 1 mps 683 mmHg 87%
    04:00 +14°C° 0 mm 1 mps 683 mmHg 87%
    05:00 +16°C° 0 mm 1 mps 683 mmHg 82%
    06:00 +19°C° 0 mm 1 mps 684 mmHg 78%
    07:00 +20°C° 0 mm 1 mps 684 mmHg 73%
    08:00 +22°C° 0.1 mm 1 mps 685 mmHg 67%
    09:00 +24°C° 0.1 mm 1 mps 685 mmHg 60%
    10:00 +25°C° 0.1 mm 1 mps 685 mmHg 54%
    11:00 +26°C° 0.8 mm 1 mps 685 mmHg 55%
    12:00 +26°C° 0.8 mm 1 mps 685 mmHg 56%
    13:00 +26°C° 0.8 mm 2 mps 685 mmHg 57%
    14:00 +25°C° 1.8 mm 2 mps 684 mmHg 61%
    15:00 +24°C° 1.8 mm 1 mps 684 mmHg 66%
    16:00 +23°C° 1.8 mm 1 mps 684 mmHg 71%
    17:00 +22°C° 0.8 mm 1 mps 684 mmHg 75%
    18:00 +21°C° 0.8 mm 1 mps 684 mmHg 79%
    19:00 +20°C° 0.8 mm 1 mps 684 mmHg 82%
    20:00 +19°C° 0.2 mm 1 mps 684 mmHg 83%
    21:00 +19°C° 0.2 mm 1 mps 684 mmHg 83%
    22:00 +18°C° 0.2 mm 1 mps 684 mmHg 84%
    23:00 +18°C° 0 mm 1 mps 684 mmHg 84%

    Tomorrow, 19 June, Tuesday

    Time Temperature Precipitation Wind Pressure Humidity
    00:00 +16°C° 0 mm 1 mps 684 mmHg 84%
    01:00 +16°C° 0 mm 1 mps 684 mmHg 84%
    02:00 +16°C° 0 mm 1 mps 684 mmHg 84%
    03:00 +15°C° 0 mm 1 mps 684 mmHg 85%
    04:00 +15°C° 0 mm 1 mps 684 mmHg 85%
    05:00 +18°C° 0 mm 1 mps 684 mmHg 82%
    06:00 +19°C° 0 mm 1 mps 685 mmHg 78%
    07:00 +21°C° 0 mm 1 mps 685 mmHg 75%
    08:00 +22°C° 0.1 mm 1 mps 686 mmHg 69%
    09:00 +23°C° 0.1 mm 1 mps 686 mmHg 63%
    10:00 +25°C° 0.1 mm 1 mps 687 mmHg 57%
    11:00 +25°C° 0.8 mm 1 mps 687 mmHg 58%
    12:00 +25°C° 0.8 mm 1 mps 687 mmHg 60%
    13:00 +25°C° 0.8 mm 2 mps 687 mmHg 62%
    14:00 +24°C° 1.6 mm 2 mps 687 mmHg 67%
    15:00 +23°C° 1.6 mm 2 mps 686 mmHg 73%
    16:00 +21°C° 1.6 mm 2 mps 686 mmHg 78%
    17:00 +20°C° 0.7 mm 2 mps 686 mmHg 81%
    18:00 +20°C° 0.7 mm 1 mps 686 mmHg 83%
    19:00 +19°C° 0.7 mm 1 mps 687 mmHg 86%
    20:00 +19°C° 0.4 mm 1 mps 687 mmHg 86%
    21:00 +18°C° 0.4 mm 1 mps 687 mmHg 86%
    22:00 +18°C° 0.4 mm 1 mps 687 mmHg 86%
    23:00 +18°C° 0 mm 1 mps 687 mmHg 85%

    Day after tomorrow, 20 June, Wednesday

    Time Temperature Precipitation Wind Pressure Humidity
    00:00 +16°C° 0 mm 2 mps 687 mmHg 84%
    01:00 +16°C° 0 mm 2 mps 687 mmHg 83%
    02:00 +16°C° 0 mm 2 mps 687 mmHg 82%
    03:00 +15°C° 0 mm 2 mps 687 mmHg 81%
    04:00 +15°C° 0 mm 2 mps 687 mmHg 80%
    05:00 +17°C° 0 mm 2 mps 687 mmHg 77%
    06:00 +18°C° 0 mm 2 mps 688 mmHg 75%
    07:00 +19°C° 0 mm 2 mps 688 mmHg 72%
    08:00 +21°C° 0 mm 2 mps 689 mmHg 65%
    09:00 +24°C° 0 mm 1 mps 689 mmHg 58%
    10:00 +25°C° 0 mm 1 mps 690 mmHg 51%
    11:00 +25°C° 0.1 mm 2 mps 690 mmHg 51%
    12:00 +26°C° 0.1 mm 2 mps 689 mmHg 52%
    13:00 +26°C° 0.1 mm 2 mps 689 mmHg 53%
    14:00 +25°C° 0.2 mm 2 mps 689 mmHg 55%
    15:00 +25°C° 0.2 mm 2 mps 689 mmHg 57%
    16:00 +24°C° 0.2 mm 2 mps 689 mmHg 59%
    17:00 +23°C° 0.2 mm 1 mps 689 mmHg 64%
    18:00 +21°C° 0.2 mm 1 mps 689 mmHg 68%
    19:00 +20°C° 0.2 mm 1 mps 689 mmHg 72%
    20:00 +19°C° 0.1 mm 1 mps 689 mmHg 72%
    21:00 +18°C° 0.1 mm 1 mps 689 mmHg 73%
    22:00 +18°C° 0.1 mm 1 mps 689 mmHg 73%
    23:00 +16°C° 0 mm 1 mps 689 mmHg 72%

    21 June, Thursday

    Time Temperature Precipitation Wind Pressure Humidity
    00:00 +16°C° 0 mm 1 mps 688 mmHg 72%
    01:00 +16°C° 0 mm 1 mps 688 mmHg 71%
    02:00 +16°C° 0 mm 1 mps 688 mmHg 71%
    03:00 +15°C° 0 mm 1 mps 688 mmHg 71%
    04:00 +15°C° 0 mm 1 mps 688 mmHg 70%
    05:00 +18°C° 0 mm 1 mps 688 mmHg 68%
    06:00 +20°C° 0 mm 1 mps 689 mmHg 65%
    07:00 +22°C° 0 mm 1 mps 689 mmHg 62%
    08:00 +23°C° 0.2 mm 1 mps 689 mmHg 59%
    09:00 +25°C° 0.2 mm 1 mps 689 mmHg 55%
    10:00 +26°C° 0.2 mm 1 mps 690 mmHg 52%
    11:00 +26°C° 0.4 mm 1 mps 689 mmHg 53%
    12:00 +26°C° 0.4 mm 1 mps 689 mmHg 53%
    13:00 +26°C° 0.4 mm 1 mps 689 mmHg 54%
    14:00 +26°C° 0.9 mm 1 mps 689 mmHg 57%
    15:00 +25°C° 0.9 mm 1 mps 688 mmHg 59%
    16:00 +25°C° 0.9 mm 1 mps 688 mmHg 61%
    17:00 +23°C° 1.2 mm 1 mps 688 mmHg 67%
    18:00 +22°C° 1.2 mm 1 mps 688 mmHg 73%
    19:00 +20°C° 1.2 mm 1 mps 688 mmHg 78%
    20:00 +20°C° 0.2 mm 1 mps 687 mmHg 80%
    21:00 +19°C° 0.2 mm 1 mps 687 mmHg 81%
    22:00 +18°C° 0.2 mm 1 mps 687 mmHg 82%
    23:00 +18°C° 0.1 mm 1 mps 687 mmHg 83%

    22 June, Friday

    Time Temperature Precipitation Wind Pressure Humidity
    00:00 +18°C° 0.1 mm 1 mps 687 mmHg 84%
    01:00 +16°C° 0.1 mm 1 mps 687 mmHg 85%
    02:00 +16°C° 0 mm 1 mps 686 mmHg 85%
    03:00 +16°C° 0 mm 1 mps 686 mmHg 85%
    04:00 +16°C° 0 mm 1 mps 686 mmHg 86%
    05:00 +18°C° 0 mm 1 mps 686 mmHg 81%
    06:00 +20°C° 0 mm 1 mps 686 mmHg 76%
    07:00 +19°C° 0 mm 0 mps 687 mmHg 71%
    08:00 +23°C° 0.3 mm 1 mps 687 mmHg 67%
    09:00 +24°C° 0.3 mm 1 mps 687 mmHg 63%
    10:00 +25°C° 0.3 mm 2 mps 688 mmHg 59%
    11:00 +25°C° 0.9 mm 2 mps 687 mmHg 59%
    12:00 +25°C° 0.9 mm 2 mps 687 mmHg 60%
    13:00 +26°C° 0.9 mm 3 mps 687 mmHg 61%
    14:00 +25°C° 1.2 mm 2 mps 687 mmHg 63%
    15:00 +25°C° 1.2 mm 2 mps 686 mmHg 66%
    16:00 +24°C° 1.2 mm 2 mps 686 mmHg 68%
    17:00 +23°C° 0.5 mm 2 mps 686 mmHg 74%
    18:00 +20°C° 0.5 mm 2 mps 686 mmHg 79%
    19:00 +20°C° 0.5 mm 1 mps 686 mmHg 85%
    20:00 +19°C° 0.6 mm 1 mps 686 mmHg 87%
    21:00 +19°C° 0.6 mm 1 mps 686 mmHg 90%
    22:00 +18°C° 0.6 mm 1 mps 686 mmHg 92%
    23:00 +18°C° 0.1 mm 1 mps 686 mmHg 93%

    23 June, Saturday

    Time Temperature Precipitation Wind Pressure Humidity
    00:00 +16°C° 0.1 mm 1 mps 685 mmHg 94%
    01:00 +16°C° 0.1 mm 1 mps 685 mmHg 94%
    02:00 +16°C° 0 mm 1 mps 685 mmHg 94%
    03:00 +15°C° 0 mm 1 mps 685 mmHg 93%
    04:00 +15°C° 0 mm 1 mps 685 mmHg 93%
    05:00 +18°C° 0 mm 1 mps 686 mmHg 87%
    06:00 +20°C° 0 mm 1 mps 686 mmHg 81%
    07:00 +22°C° 0 mm 1 mps 687 mmHg 75%
    08:00 +23°C° 0.1 mm 1 mps 687 mmHg 69%
    09:00 +25°C° 0.1 mm 1 mps 687 mmHg 63%
    10:00 +26°C° 0.1 mm 1 mps 687 mmHg 58%
    11:00 +26°C° 1 mm 1 mps 687 mmHg 59%
    12:00 +26°C° 1 mm 1 mps 687 mmHg 61%
    13:00 +26°C° 1 mm 1 mps 687 mmHg 63%
    14:00 +26°C° 1.4 mm 1 mps 687 mmHg 65%
    15:00 +25°C° 1.4 mm 1 mps 686 mmHg 68%
    16:00 +25°C° 1.4 mm 1 mps 686 mmHg 70%
    17:00 +23°C° 0.9 mm 1 mps 686 mmHg 75%
    18:00 +22°C° 0.9 mm 1 mps 686 mmHg 79%
    19:00 +21°C° 0.9 mm 1 mps 686 mmHg 84%
    20:00 +20°C° 0.5 mm 1 mps 686 mmHg 86%
    21:00 +19°C° 0.5 mm 1 mps 686 mmHg 87%
    22:00 +19°C° 0.5 mm 1 mps 686 mmHg 89%
    23:00 +18°C° 0.3 mm 1 mps 686 mmHg 89%
    Show more